Powrót do katalogu

STARLINK-38078

AktywnyŁącznośćSSO
NORAD 69744·PAYLOAD·🇺🇸 United States

Wystrzelony Jul 2, 2026 z Vandenberg Space Force Base

Loading…

Następne Przeloty (najbliższe 24 godziny)

TLE

ŚwieżeSource: CelesTrak SupGP

Epoka: Sep 15, 2026, 03:45 UTC

1 69744C 26150F   26258.15673611 -.00042742  00000+0 -13256-2 0  2584
2 69744  97.2852  97.0967 0001649 100.4864 232.0957 15.33489467    15

Śledź STARLINK-38078 w czasie rzeczywistym z AllMySat

Download on the App Store